Weather History for Oshkosh, WI

Change the Weather History Date:

Friday, September 27, 2013

  Actual Average Record
Temperature  
Mean Temperature 64 °F -  
Max Temperature 79 °F 66 °F 82 °F (1979)
Min Temperature 48 °F 46 °F 29 °F (1984)
Degree Days  
Heating Degree Days 2    
Growing Degree Days 14 (Base 50)    
Moisture  
Dew Point 50 °F    
Average Humidity 79    
Maximum Humidity 97    
Minimum Humidity 39    
Precipitation  
Precipitation 0.01 in - - ()
Sea Level Pressure  
Sea Level Pressure 30.10 in    
Wind  
Wind Speed 3 mph (SSE)    
Max Wind Speed 14 mph    
Max Gust Speed 22 mph    
Visibility 6 miles    
Events      
Averages and records for this station are not official NWS values.
T = Trace of Precipitation, MM = Missing Value Source: NWS Daily Summary

Daily Weather History Graph

Daily Weather History Graph

Search for Another Location

Airport:

Trip Planner

Search our weather history database for the weather conditions in past years. The results will help you decide how hot, cold, wet, or windy it might be!

Date:

Astronomy

Sep. 27, 2013 Rise Set
Actual Time 6:47 AM CDT 6:41 PM CDT
Civil Twilight 6:18 AM CDT 7:10 PM CDT
Nautical Twilight 5:45 AM CDT 7:44 PM CDT
Astronomical Twilight 5:10 AM CDT 8:18 PM CDT
Moon No Moon Rise 2:31 PM CDT (9/27)
Length of Visible Light 12h 51m
Length of Day
11h 54m
Last Quarter, 45% of the Moon is Illuminated
Sep 27
Last Quarter
Oct 4
New
Oct 11
First Quarter
Oct 18
Full
Oct 26
Last Quarter

Hourly Weather History & Observations

Time (CDT) Temp. Dew Point Humidity Pressure Visibility Wind Dir Wind Speed Gust Speed Precip Events Conditions
12:00 AM 50.0 °F 48.2 °F 94% 30.10 in 1.8 mi Calm Calm - N/A   Clear
12:16 AM 51.8 °F 50.0 °F 94% 30.10 in 3.0 mi Calm Calm - N/A   Clear
12:33 AM 51.8 °F 48.2 °F 88% 30.10 in 1.8 mi Calm Calm - N/A   Clear
12:49 AM 50.0 °F 48.2 °F 94% 30.10 in 2.0 mi Calm Calm - N/A   Clear
12:53 AM 50.0 °F 48.0 °F 93% 30.09 in 2.0 mi Calm Calm - N/A   Clear
1:05 AM 48.2 °F 46.4 °F 93% 30.10 in 1.2 mi Calm Calm - N/A   Clear
1:27 AM 50.0 °F 48.2 °F 94% 30.11 in 2.0 mi Calm Calm - N/A   Clear
1:46 AM 50.0 °F 48.2 °F 94% 30.11 in 1.8 mi Calm Calm - N/A   Clear
1:53 AM 51.1 °F 48.9 °F 92% 30.09 in 2.5 mi South 3.5 mph - N/A   Clear
2:33 AM 51.8 °F 50.0 °F 94% 30.11 in 3.0 mi South 4.6 mph - N/A   Clear
2:53 AM 51.1 °F 48.9 °F 92% 30.09 in 2.5 mi South 5.8 mph - N/A   Clear
3:24 AM 53.6 °F 51.8 °F 94% 30.11 in 3.0 mi Calm Calm - N/A   Clear
3:39 AM 50.0 °F 48.2 °F 94% 30.11 in 2.5 mi SSE 3.5 mph - N/A   Clear
3:53 AM 50.0 °F 48.9 °F 96% 30.09 in 2.0 mi SSE 3.5 mph - N/A   Clear
4:29 AM 51.8 °F 50.0 °F 94% 30.11 in 3.0 mi SSE 3.5 mph - N/A   Clear
4:53 AM 52.0 °F 50.0 °F 93% 30.10 in 3.0 mi South 3.5 mph - N/A   Clear
5:53 AM 52.0 °F 50.0 °F 93% 30.12 in 4.0 mi South 3.5 mph - N/A   Clear
6:21 AM 50.0 °F 48.2 °F 94% 30.13 in 2.5 mi South 3.5 mph - 0.01 in   Clear
6:39 AM 50.0 °F 48.2 °F 94% 30.14 in 3.0 mi South 3.5 mph - 0.01 in   Clear
6:53 AM 48.9 °F 48.0 °F 97% 30.13 in 3.0 mi South 4.6 mph - 0.01 in   Clear
7:00 AM 50.0 °F 48.2 °F 94% 30.14 in 2.0 mi South 4.6 mph - N/A   Clear
7:07 AM 51.8 °F 48.2 °F 88% 30.14 in 4.0 mi South 3.5 mph - N/A   Clear
7:53 AM 55.9 °F 53.1 °F 90% 30.13 in 4.0 mi Calm Calm - N/A   Clear
8:53 AM 63.0 °F 55.9 °F 78% 30.14 in 10.0 mi South 5.8 mph - N/A   Clear
9:53 AM 68.0 °F 55.9 °F 65% 30.14 in 10.0 mi South 9.2 mph - N/A   Clear
10:53 AM 73.0 °F 54.0 °F 51% 30.13 in 10.0 mi SSW 11.5 mph - N/A   Clear
11:53 AM 75.0 °F 55.0 °F 50% 30.12 in 10.0 mi South 10.4 mph - N/A   Clear
12:53 PM 77.0 °F 52.0 °F 42% 30.10 in 10.0 mi South 13.8 mph 21.9 mph N/A   Clear
1:53 PM 78.1 °F 51.1 °F 39% 30.08 in 10.0 mi SSE 11.5 mph 21.9 mph N/A   Clear
2:53 PM 78.1 °F 52.0 °F 40% 30.06 in 10.0 mi SE 11.5 mph 20.7 mph N/A   Clear
3:53 PM 79.0 °F 52.0 °F 39% 30.05 in 10.0 mi SSE 10.4 mph - N/A   Clear
4:53 PM 75.0 °F 54.0 °F 48% 30.05 in 10.0 mi SE 12.7 mph - N/A   Clear
5:53 PM 72.0 °F 52.0 °F 49% 30.05 in 10.0 mi SE 10.4 mph - N/A   Clear
6:53 PM 66.9 °F 52.0 °F 59% 30.05 in 10.0 mi SE 10.4 mph - N/A   Clear
7:53 PM 64.0 °F 51.1 °F 63% 30.05 in 10.0 mi SSE 10.4 mph - N/A   Clear
8:53 PM 57.9 °F 48.0 °F 70% 30.07 in 10.0 mi South 4.6 mph - N/A   Clear
9:53 PM 55.9 °F 46.9 °F 72% 30.06 in 10.0 mi SSE 4.6 mph - N/A   Clear
10:53 PM 53.1 °F 46.9 °F 80% 30.06 in 10.0 mi South 4.6 mph - N/A   Clear
11:53 PM 52.0 °F 48.0 °F 86% 30.04 in 10.0 mi South 4.6 mph - N/A   Clear